Regional Weather Roundup
Issued by NWS

Home | Current Version | Previous Version | Text Only | Print | Product List | Glossary Off
Versions: 1 2 3 4 5 6 7 8 9 10 11 12 13 14 15 16 17 18 19 20 21 22 23 24 25 26 27 28 29 30 31 32 33 34 35 36 37 38 39 40 41 42 43 44 45 46 47 48 49 50

000
ASUS45 KCYS 261810
RWRWY

WYOMING REGIONAL WEATHER ROUNDUP
NATIONAL WEATHER SERVICE CHEYENNE WY
1200 PM MDT FRI AUG 26 2016

NOTE:  "FAIR" INDICATES FEW OR NO CLOUDS BELOW 12,000 FEET
WITH NO SIGNIFICANT WEATHER AND/OR OBSTRUCTIONS TO VISIBILITY.

WYZ001-261900-
YELLOWSTONE NATIONAL PARK

CITY           SKY/WX    TMP DP  RH WIND       PRES   REMARKS
LK YELLOWSTONE   N/A     54  36  50 VRB3      30.24F
6HR MIN TEMP:  40; 6HR MAX TEMP:  55; 6HR PCP:  0.01;

W YELLOWSTONE  NOT AVBL

$$
WYZ002>013-054>058-071-098>099-261900-
NORTHERN WYOMING

CITY           SKY/WX    TMP DP  RH WIND       PRES   REMARKS
JACKSON        SUNNY     63  34  34 S8        30.16
CODY           FAIR      57  43  58 NE5       30.13F
GREYBULL       FAIR      66  45  46 SE9       30.08F
6HR MIN TEMP:  50; 6HR MAX TEMP:  67;

WORLAND        FAIR      65  46  50 VRB5      30.10F
6HR MIN TEMP:  46; 6HR MAX TEMP:  65;

SHERIDAN       PTSUNNY   71  44  37 VRB3      30.10F
6HR MIN TEMP:  45; 6HR MAX TEMP:  71;

BUFFALO        PTSUNNY   63  39  41 N12G26    30.13F
6HR MIN TEMP:  48; 6HR MAX TEMP:  67;

GILLETTE       FAIR      66  45  46 MISG      30.09F
6HR MIN TEMP:  49; 6HR MAX TEMP:  67;

HULETT         FAIR      68  45  42 S5        30.10F
NEWCASTLE      FAIR      61  46  59 S9        30.12F

$$
WYZ014>020-022>026-101>103-261900-
CENTRAL WYOMING

CITY           SKY/WX    TMP DP  RH WIND       PRES   REMARKS
BIG PINEY      FAIR      60  37  42 MISG      30.21F
6HR MIN TEMP:  29; 6HR MAX TEMP:  60;

PINEDALE       FAIR      63  32  31 SE6       30.21F
DUBOIS         FAIR      61  30  31 SE12      30.17F
LANDER         FAIR      63  42  46 SE5       30.13F
6HR MIN TEMP:  42; 6HR MAX TEMP:  64;

RIVERTON       FAIR      62  47  57 E6        30.14F
6HR MIN TEMP:  44; 6HR MAX TEMP:  62;

CASPER         FAIR      65  44  46 VRB5      30.14F
6HR MIN TEMP:  46; 6HR MAX TEMP:  65;

DOUGLAS        FAIR      65  48  54 N8        30.13F
6HR MIN TEMP:  45; 6HR MAX TEMP:  66;


$$
WYZ021-027>030-104>119-261900-
SOUTHERN WYOMING

CITY           SKY/WX    TMP DP  RH WIND       PRES   REMARKS
EVANSTON       FAIR      70  31  23 SW13G25   30.17F
6HR MIN TEMP:  45; 6HR MAX TEMP:  70;

FORT BRIDGER   FAIR      65  34  32 N3        30.22F
ROCK SPRINGS   FAIR      66  32  28 W3        30.18F
6HR MIN TEMP:  44; 6HR MAX TEMP:  66;

DIXON          FAIR      69  38  31 S10G17    30.23F
RAWLINS        FAIR      69  34  27 SW13      30.19F
6HR MIN TEMP:  39; 6HR MAX TEMP:  69;

SARATOGA       FAIR      66  32  28 W14G23    30.21F
LARAMIE        TSTM      62  32  32 N8        30.19F
6HR MIN TEMP:  41; 6HR MAX TEMP:  65; 6HR PCP: TRACE;

CHEYENNE       FAIR      69  42  37 VRB5      30.15F
6HR MIN TEMP:  51; 6HR MAX TEMP:  70; 6HR PCP: TRACE;

TORRINGTON     FAIR      68  49  50 VRB3      30.09F
6HR MIN TEMP:  53; 6HR MAX TEMP:  68;

PINE BLUFFS    FAIR      68  52  56 SE8       30.15F

$$



USA.gov is the U.S. government's official web portal to all federal, state and local government web resources and services.